Location: Peterborough
(44.3091°N, 78.3197°W)
Time: 01:43:30
(UTC-04:00)

Vanguard 2 Rocket - Pass Details

Date: 22 March 2023
Orbit: 554 x 3314 km, 32.9° (Epoch: 02 June)

Event Time Altitude Azimuth Distance (km) Brightness Sun altitude
Rises 23:27:29 0° 256° (WSW) 4,510 10.7 -38.3°
Reaches altitude 10° 23:30:06 10° 250° (WSW) 3,830 10.2 -38.6°
Enters shadow 23:36:01 39° 224° (SW) 2,784 9.1 -39.2°
Maximum altitude 23:40:22 51° 179° (S) 2,750 - -39.6°
Drops below altitude 10° 23:57:03 10° 111° (ESE) 6,016 - -41.2°
Sets 00:02:24 0° 107° (ESE) 7,215 - -41.6°
